Flag for United Kingdom Weather past 2 weeks in Canterbury, England, United Kingdom

Now
63 °F

Mild.


Feels Like: 63 °F
Forecast: 53 / 70 °F
Wind: 13 mph from Southeast

Location: Manston

Current Time: Jul 31, 2015 at 1:06:28 PM

Latest Report: Jul 31, 2015 at 12:00 PM


Visibility: 14 mi

Pressure: 30.11 "Hg

Humidity: 65%

Dew point: 51 °F

Location of CanterburyLocation

Historic Weather in Canterbury — Graph

°F

Canterbury temperature yesterday

Maximum temperature yesterday: 65 °F (at 4:00 PM)
Minimum temperature yesterday: 53 °F (at 10:00 PM)
Average temperature yesterday: 57 °F

Past Weeks' High & Low Weather Summary

 TemperatureHumidityPressure
High75 °F (Jul 21, 1:00 PM)94% (Jul 20, 11:00 AM)30.15 "Hg (Jul 20, 11:00 AM)
Low48 °F (Jul 31, 4:00 AM)41% (Jul 18, 6:00 PM)29.44 "Hg (Jul 26, 11:00 PM)
Average61 °F72%29.87 "Hg
* Reported Jul 16 11:00 AM — Jul 31 11:00 AM, Canterbury, Weather by CustomWeather, © 2015

Note: Actual official high and low records may vary slightly from our data, if they occured in-between our weather recording intervals... More about our weather records

Advertising

Canterbury weather history for previous 24 hours

 ConditionsComfort  
Time TempWeatherWind HumidityBarometerVisibility
11:00 AM
Fri, Jul 31
61 °FCool.13 mph64%30.13 "Hg28 mi
10:00 AM60 °FCool.12 mph69%30.13 "Hg22 mi
9:00 AM57 °FCool.6 mph83%30.14 "Hg19 mi
8:00 AM56 °FCool.5 mph88%30.14 "Hg9 mi
7:00 AM52 °FCool.No wind93%30.13 "Hg7 mi
6:00 AM50 °FSmoke.2 mph93%30.13 "Hg6 mi
5:00 AM49 °FCool.3 mph92%30.13 "Hg7 mi
4:00 AM48 °FCool.3 mph91%30.14 "Hg8 mi
3:00 AM50 °FCool.2 mph88%30.14 "Hg14 mi
2:00 AM52 °FCool.1 mph84%30.14 "Hg17 mi
12:00 AM53 °FCool.2 mph87%30.15 "Hg19 mi
11:00 PM
Thu, Jul 30
54 °FCool.5 mph85%30.14 "Hg19 mi
10:00 PM53 °FCool.2 mph86%30.14 "Hg18 mi
9:00 PM55 °FCool.5 mph78%30.13 "Hg28 mi
8:00 PM60 °FSmoke.6 mph65%30.12 "Hg19 mi
7:00 PM61 °FCool.6 mph61%30.10 "Hg25 mi
6:00 PM60 °FCool.7 mph68%30.10 "Hg28 mi
5:00 PM59 °FLight freezing rain. Cloudy.16 mph72%30.10 "Hg14 mi
4:00 PM65 °FMild.12 mph49%30.08 "Hg25 mi
3:00 PM64 °FMild.10 mph52%30.08 "Hg25 mi
2:00 PM63 °FMild.10 mph54%30.07 "Hg12 mi
1:00 PM62 °FRefreshingly cool.12 mph54%30.06 "Hg25 mi
Weather by CustomWeather, © 2015

See weather overviewHow to use our weather pages